FW0810 Weather Reports


Display with metric or nautical units.
time (UTC)temp
F
wind
direction
speed
MPH
gust
MPH
rain 1hr
in
rain 24hr
in
rain mn
in
humidity
%
barometer
mb
20260831052702 67 274 0.0 3.0 0.00 0.00 0.00 84 1019.1
20260831052202 67 273 0.0 0.0 0.00 0.00 0.00 85 1019.1
20260831050700 67 274 0.0 0.0 0.00 0.00 0.00 84 1019.0
20260831050200 67 274 0.0 0.0 0.00 0.00 0.00 84 1018.9
20260831045702 66 274 0.0 0.0 0.00 0.00 0.00 84 1018.9
20260831045200 67 274 0.0 0.0 0.00 0.00 0.00 83 1019.0
20260831044701 67 274 0.0 0.0 0.00 0.00 0.00 83 1018.9
20260831043658 67 269 0.0 0.0 0.00 0.00 0.00 83 1019.0
20260831043159 67 269 0.0 0.0 0.00 0.00 0.00 82 1019.0
20260831042156 67 269 0.0 1.0 0.00 0.00 0.00 82 1018.9
20260831041656 67 267 0.0 1.0 0.00 0.00 0.00 82 1018.9
20260831041158 67 274 0.0 0.0 0.00 0.00 0.00 81 1018.8
20260831040157 67 274 0.0 0.0 0.00 0.00 0.00 81 1018.9
20260831035654 67 274 0.0 0.0 0.00 0.00 0.00 80 1018.9
20260831035151 67 274 0.0 0.0 0.00 0.00 0.00 80 1018.8
20260831034653 68 274 0.0 0.0 0.00 0.00 0.00 80 1018.9
20260831034152 68 274 0.0 0.0 0.00 0.00 0.00 80 1018.8
20260831033652 68 274 0.0 1.0 0.00 0.00 0.00 79 1018.8
20260831033152 68 274 0.0 2.0 0.00 0.00 0.00 79 1018.7
20260831032656 68 276 0.0 3.0 0.00 0.00 0.00 78 1018.7
20260831032152 68 276 0.0 3.0 0.00 0.00 0.00 78 1018.6
20260831031654 69 276 0.0 3.0 0.00 0.00 0.00 77 1018.6
20260831031147 69 274 0.0 3.0 0.00 0.00 0.00 77 1018.6
20260831030648 69 266 0.0 0.0 0.00 0.00 0.00 77 1018.6
20260831030149 69 266 0.0 0.0 0.00 0.00 0.00 76 1018.6
20260831025150 70 265 0.0 0.0 0.00 0.00 0.00 75 1018.7
20260831024648 70 267 0.0 1.0 0.00 0.00 0.00 75 1018.7
20260831024149 70 266 0.0 1.0 0.00 0.00 0.00 74 1018.6
20260831023648 71 263 0.0 0.0 0.00 0.00 0.00 74 1018.6
20260831023147 71 263 0.0 0.0 0.00 0.00 0.00 74 1018.6
20260831022640 71 263 0.0 0.0 0.00 0.00 0.00 74 1018.7
20260831022135 71 263 0.0 0.0 0.00 0.00 0.00 74 1018.6
20260831021629 71 262 0.0 3.0 0.00 0.00 0.00 73 1018.6
20260831021127 71 260 0.0 3.0 0.00 0.00 0.00 73 1018.7
20260831020617 71 259 0.0 3.0 0.00 0.00 0.00 72 1018.6
20260831020111 72 281 0.0 3.0 0.00 0.00 0.00 72 1018.6
20260831015606 72 281 0.0 1.0 0.00 0.00 0.00 72 1018.6
20260831015059 72 266 0.0 0.0 0.00 0.00 0.00 72 1018.7
20260831014555 72 265 0.0 0.0 0.00 0.00 0.00 72 1018.6
20260831014047 72 265 0.0 0.0 0.00 0.00 0.00 72 1018.7
20260831013542 72 265 0.0 0.0 0.00 0.00 0.00 72 1018.7
20260831012530 73 265 0.0 0.0 0.00 0.00 0.00 71 1018.7
20260831012028 73 265 0.0 0.0 0.00 0.00 0.00 71 1018.6
20260831011517 73 265 0.0 1.0 0.00 0.00 0.00 70 1018.7
20260831011011 73 266 0.0 1.0 0.00 0.00 0.00 70 1018.6
20260831010507 74 256 0.0 1.0 0.00 0.00 0.00 69 1018.7
20260831010007 74 255 0.0 1.0 0.00 0.00 0.00 69 1018.7
20260831005506 74 255 0.0 0.0 0.00 0.00 0.00 69 1018.6
20260831005004 74 255 0.0 0.0 0.00 0.00 0.00 69 1018.6
20260831004503 74 255 0.0 0.0 0.00 0.00 0.00 69 1018.6
20260831004004 74 255 0.0 0.0 0.00 0.00 0.00 69 1018.6
20260831003502 74 255 0.0 0.0 0.00 0.00 0.00 69 1018.7
20260831001957 75 255 0.0 0.0 0.00 0.00 0.00 68 1018.7
20260831001453 75 255 0.0 0.0 0.00 0.00 0.00 67 1018.8
20260831000951 75 255 0.0 0.0 0.00 0.00 0.00 67 1018.7
20260831000454 75 255 0.0 0.0 0.00 0.00 0.00 67 1018.7
20260830235951 75 255 0.0 0.0 0.00 0.00 0.00 66 1018.7
20260830235452 76 255 0.0 0.0 0.00 0.00 0.00 66 1018.7
20260830234947 76 255 0.0 0.0 0.00 0.00 0.00 65 1018.6
20260830234446 76 255 0.0 0.0 0.00 0.00 0.00 65 1018.7
20260830233943 76 255 0.0 2.0 0.00 0.00 0.00 65 1018.7
20260830233442 76 253 0.0 2.0 0.00 0.00 0.00 65 1018.6
20260830232952 76 285 0.0 1.0 0.00 0.00 0.00 64 1018.7
20260830231933 76 288 0.0 0.0 0.00 0.00 0.00 64 1018.6
20260830231430 77 289 0.0 0.0 0.00 0.00 0.00 64 1018.6
20260830230415 77 289 0.0 0.0 0.00 0.00 0.00 63 1018.5
20260830225909 77 289 0.0 0.0 0.00 0.00 0.00 63 1018.5
20260830225403 77 294 0.0 1.0 0.00 0.00 0.00 63 1018.5
20260830224858 77 293 0.0 3.0 0.00 0.00 0.00 63 1018.6
20260830224351 77 330 0.0 3.0 0.00 0.00 0.00 62 1018.5
20260830223846 78 275 0.0 1.0 0.00 0.00 0.00 62 1018.5
20260830223339 78 276 0.0 1.0 0.00 0.00 0.00 62 1018.5
20260830222834 78 275 0.0 2.0 0.00 0.00 0.00 62 1018.6
20260830221821 78 293 0.0 2.0 0.00 0.00 0.00 62 1018.4
20260830221322 78 284 0.0 4.0 0.00 0.00 0.00 61 1018.4
20260830220823 78 266 0.0 4.0 0.00 0.00 0.00 61 1018.3
20260830220321 78 280 0.0 0.0 0.00 0.00 0.00 61 1018.4
20260830215819 78 282 0.0 0.0 0.00 0.00 0.00 61 1018.3
20260830215318 78 282 0.0 0.0 0.00 0.00 0.00 61 1018.2
20260830214317 78 319 0.0 3.0 0.00 0.00 0.00 61 1018.2
20260830213816 78 267 0.0 3.0 0.00 0.00 0.00 61 1018.3
20260830213314 79 276 0.0 1.0 0.00 0.00 0.00 60 1018.3
20260830212812 79 276 0.0 1.0 0.00 0.00 0.00 60 1018.2
20260830212310 79 270 0.0 0.0 0.00 0.00 0.00 59 1018.2
20260830211810 79 270 0.0 1.0 0.00 0.00 0.00 59 1018.1
20260830211309 79 270 0.0 1.0 0.00 0.00 0.00 58 1018.1
20260830210307 80 274 0.0 1.0 0.00 0.00 0.00 58 1018.1
20260830205802 80 278 0.0 0.0 0.00 0.00 0.00 57 1018.1
20260830204243 80 275 0.0 0.0 0.00 0.00 0.00 57 1017.9
20260830203744 81 274 0.0 0.0 0.00 0.00 0.00 56 1017.9
20260830203223 81 273 0.0 0.0 0.00 0.00 0.00 56 1017.8
20260830202718 81 272 0.0 0.0 0.00 0.00 0.00 55 1017.8
20260830202211 81 273 0.0 1.0 0.00 0.00 0.00 54 1017.8
20260830201717 81 273 0.0 3.0 0.00 0.00 0.00 54 1017.7
20260830201213 81 274 0.0 5.0 0.00 0.00 0.00 54 1017.7
20260830200652 81 255 0.0 5.0 0.00 0.00 0.00 54 1017.8
20260830195648 81 307 1.0 6.0 0.00 0.00 0.00 55 1017.7
20260830195147 82 290 0.0 6.0 0.00 0.00 0.00 55 1017.6
20260830194643 82 286 0.0 3.0 0.00 0.00 0.00 54 1017.6
20260830194141 82 288 0.0 4.0 0.00 0.00 0.00 55 1017.6
20260830193642 82 280 0.0 4.0 0.00 0.00 0.00 55 1017.5
20260830193142 82 281 0.0 2.0 0.00 0.00 0.00 54 1017.6
20260830192642 83 269 0.0 2.0 0.00 0.00 0.00 54 1017.4
20260830192139 83 276 0.0 2.0 0.00 0.00 0.00 52 1017.4
20260830191638 83 285 0.0 1.0 0.00 0.00 0.00 52 1017.3
20260830191137 83 281 0.0 1.0 0.00 0.00 0.00 52 1017.3
20260830190635 83 277 0.0 0.0 0.00 0.00 0.00 52 1017.3
20260830190135 83 275 0.0 0.0 0.00 0.00 0.00 52 1017.3
20260830185635 83 275 0.0 0.0 0.00 0.00 0.00 53 1017.2
20260830185136 83 275 0.0 1.0 0.00 0.00 0.00 54 1017.2
20260830184634 83 274 0.0 1.0 0.00 0.00 0.00 54 1017.2
20260830184133 84 266 0.0 0.0 0.00 0.00 0.00 53 1017.1
20260830183635 84 266 0.0 0.0 0.00 0.00 0.00 52 1016.9
20260830183132 85 273 0.0 0.0 0.00 0.00 0.00 51 1016.8
20260830182625 85 304 0.0 0.0 0.00 0.00 0.00 50 1016.7
20260830182119 85 304 0.0 0.0 0.00 0.00 0.00 51 1016.8
20260830181612 86 305 0.0 0.0 0.00 0.00 0.00 51 1016.7
20260830181109 86 305 0.0 0.0 0.00 0.00 0.00 51 1016.7
20260830180607 86 305 0.0 0.0 0.00 0.00 0.00 51 1016.7
20260830180112 87 306 0.0 0.0 0.00 0.00 0.00 50 1016.6
20260830175046 88 311 0.0 0.0 0.00 0.00 0.00 49 1016.4
20260830174540 89 314 0.0 0.0 0.00 0.00 0.00 49 1016.2
20260830174031 89 314 0.0 0.0 0.00 0.00 0.00 48 1016.2
20260830173527 89 314 0.0 0.0 0.00 0.00 0.00 47 1016.2
20260830173023 90 314 0.0 0.0 0.00 0.00 0.00 46 1016.1
20260830172522 90 314 0.0 0.0 0.00 0.00 0.00 45 1016.2
20260830172021 91 314 0.0 0.0 0.00 0.00 0.00 46 1016.1
20260830171522 91 314 0.0 0.0 0.00 0.00 0.00 45 1016.1
20260830171019 92 319 0.0 0.0 0.00 0.00 0.00 45 1016.1
20260830170519 92 359 0.0 3.0 0.00 0.00 0.00 45 1016.0
20260830170015 92 0 0.0 3.0 0.00 0.00 0.00 44 1016.0
20260830165515 92 304 0.0 7.0 0.00 0.00 0.00 44 1016.0
20260830165017 92 279 0.0 7.0 0.00 0.00 0.00 44 1016.0
20260830164514 93 261 0.0 4.0 0.00 0.00 0.00 44 1016.0
20260830164013 93 217 0.0 4.0 0.00 0.00 0.00 43 1016.0
20260830163513 93 274 0.0 4.0 0.00 0.00 0.00 43 1015.8
20260830163012 94 271 0.0 4.0 0.00 0.00 0.00 42 1015.7
20260830162007 94 301 0.0 5.0 0.00 0.00 0.00 41 1015.7
20260830161506 94 359 1.0 5.0 0.00 0.00 0.00 41 1015.8
20260830160501 94 266 0.0 5.0 0.00 0.00 0.00 41 1015.8
20260830160000 94 323 0.0 5.0 0.00 0.00 0.00 40 1015.7
20260830155457 94 304 0.0 4.0 0.00 0.00 0.00 40 1015.8
20260830154958 94 265 0.0 4.0 0.00 0.00 0.00 40 1015.7
20260830154452 94 345 0.0 3.0 0.00 0.00 0.00 39 1015.8
20260830153442 94 354 1.0 5.0 0.00 0.00 0.00 39 1015.8
20260830152935 94 287 0.0 5.0 0.00 0.00 0.00 39 1015.7
20260830151935 95 268 1.0 5.0 0.00 0.00 0.00 40 1015.8
20260830151436 95 326 1.0 5.0 0.00 0.00 0.00 40 1015.7
20260830150935 95 236 0.0 4.0 0.00 0.00 0.00 39 1015.8
20260830150435 95 281 1.0 7.0 0.00 0.00 0.00 40 1016.0
20260830145934 94 274 1.0 8.0 0.00 0.00 0.00 40 1016.1
20260830145433 95 285 1.0 8.0 0.00 0.00 0.00 40 1016.2
20260830144933 95 266 1.0 4.0 0.00 0.00 0.00 40 1016.3
20260830144433 95 290 1.0 8.0 0.00 0.00 0.00 39 1016.4
20260830143434 95 283 0.0 4.0 0.00 0.00 0.00 39 1016.4
20260830142933 94 280 1.0 7.0 0.00 0.00 0.00 39 1016.4
20260830142434 94 275 1.0 7.0 0.00 0.00 0.00 40 1016.5
20260830141929 94 277 0.0 3.0 0.00 0.00 0.00 39 1016.6
20260830141430 94 354 0.0 3.0 0.00 0.00 0.00 39 1016.7
20260830140931 94 248 0.0 4.0 0.00 0.00 0.00 39 1016.8
20260830140428 94 292 0.0 4.0 0.00 0.00 0.00 40 1016.8
20260830135930 94 330 0.0 3.0 0.00 0.00 0.00 40 1016.8
20260830135429 94 359 0.0 4.0 0.00 0.00 0.00 41 1016.9
20260830134929 94 287 0.0 7.0 0.00 0.00 0.00 40 1016.9
20260830134429 94 26 1.0 9.0 0.00 0.00 0.00 41 1016.9
20260830133929 94 266 1.0 9.0 0.00 0.00 0.00 41 1017.0
20260830132929 93 300 1.0 8.0 0.00 0.00 0.00 42 1016.9
20260830131927 93 270 1.0 6.0 0.00 0.00 0.00 43 1016.9
20260830131425 93 336 1.0 5.0 0.00 0.00 0.00 44 1017.0
20260830130929 93 310 1.0 7.0 0.00 0.00 0.00 43 1017.0
20260830130425 93 349 1.0 8.0 0.00 0.00 0.00 44 1017.0
20260830125926 93 340 1.0 8.0 0.00 0.00 0.00 43 1017.1
20260830125427 93 359 1.0 5.0 0.00 0.00 0.00 43 1017.3
20260830124927 93 315 1.0 9.0 0.00 0.00 0.00 43 1017.2
20260830124426 93 343 1.0 9.0 0.00 0.00 0.00 43 1017.2
20260830123925 93 278 1.0 4.0 0.00 0.00 0.00 44 1017.3
20260830123423 93 321 1.0 5.0 0.00 0.00 0.00 45 1017.3
20260830122422 93 326 0.0 3.0 0.00 0.00 0.00 46 1017.4
20260830121923 92 342 0.0 4.0 0.00 0.00 0.00 46 1017.3
20260830120923 92 336 0.0 7.0 0.00 0.00 0.00 48 1017.4
20260830115924 92 254 1.0 9.0 0.00 0.00 0.00 50 1017.4
20260830115424 92 267 0.0 4.0 0.00 0.00 0.00 49 1017.4
20260830114426 92 312 0.0 5.0 0.00 0.00 0.00 50 1017.4
20260830112422 91 333 0.0 5.0 0.00 0.00 0.00 53 1017.5
20260830111923 91 359 0.0 5.0 0.00 0.00 0.00 52 1017.6
20260830110923 90 285 0.0 2.0 0.00 0.00 0.00 53 1017.6
20260830110425 90 188 0.0 0.0 0.00 0.00 0.00 53 1017.7
20260830105921 90 191 0.0 1.0 0.00 0.00 0.00 57 1017.6
20260830104922 89 214 1.0 5.0 0.00 0.00 0.00 56 1017.8
20260830104420 89 278 0.0 3.0 0.00 0.00 0.00 57 1017.8
20260830103921 89 279 0.0 5.0 0.00 0.00 0.00 56 1017.8
20260830102918 89 150 0.0 4.0 0.00 0.00 0.00 55 1017.8
20260830102417 89 290 0.0 4.0 0.00 0.00 0.00 56 1017.9
20260830101917 88 276 1.0 7.0 0.00 0.00 0.00 57 1017.9
20260830101419 88 280 1.0 7.0 0.00 0.00 0.00 56 1018.0
20260830100917 88 271 1.0 5.0 0.00 0.00 0.00 56 1018.1
20260830095416 89 308 0.0 5.0 0.00 0.00 0.00 56 1018.2
20260830094914 89 252 0.0 5.0 0.00 0.00 0.00 56 1018.3
20260830094416 88 117 0.0 1.0 0.00 0.00 0.00 56 1018.3
20260830093912 88 117 0.0 1.0 0.00 0.00 0.00 55 1018.4
20260830093410 88 97 0.0 1.0 0.00 0.00 0.00 55 1018.4
20260830092909 87 97 0.0 1.0 0.00 0.00 0.00 55 1018.4
20260830092406 87 97 0.0 1.0 0.00 0.00 0.00 56 1018.4
20260830090900 85 89 0.0 4.0 0.00 0.00 0.00 56 1018.5
20260830090401 85 125 0.0 2.0 0.00 0.00 0.00 58 1018.5
20260830085856 85 156 0.0 2.0 0.00 0.00 0.00 56 1018.5
20260830085356 85 155 0.0 2.0 0.00 0.00 0.00 55 1018.6
20260830084854 85 157 0.0 3.0 0.00 0.00 0.00 55 1018.6
20260830084349 85 158 0.0 4.0 0.00 0.00 0.00 58 1018.7
20260830083842 84 186 0.0 4.0 0.00 0.00 0.00 54 1018.7
20260830083337 84 143 0.0 2.0 0.00 0.00 0.00 55 1018.7
20260830082832 84 195 0.0 1.0 0.00 0.00 0.00 54 1018.7
20260830082327 84 176 0.0 1.0 0.00 0.00 0.00 54 1018.6
20260830081823 83 284 0.0 2.0 0.00 0.00 0.00 54 1018.6
20260830081312 83 266 0.0 2.0 0.00 0.00 0.00 53 1018.7
20260830080302 83 170 0.0 1.0 0.00 0.00 0.00 54 1018.7
20260830075755 82 177 0.0 1.0 0.00 0.00 0.00 55 1018.7
20260830075249 82 178 0.0 1.0 0.00 0.00 0.00 54 1018.6
20260830074742 82 172 0.0 2.0 0.00 0.00 0.00 53 1018.6
20260830074237 81 176 0.0 2.0 0.00 0.00 0.00 54 1018.6
20260830073226 80 176 0.0 2.0 0.00 0.00 0.00 55 1018.6
20260830072723 79 282 0.0 2.0 0.00 0.00 0.00 56 1018.6
20260830072214 79 282 0.0 2.0 0.00 0.00 0.00 57 1018.5
20260830071709 79 210 0.0 1.0 0.00 0.00 0.00 59 1018.5
20260830065703 76 278 0.0 2.0 0.00 0.00 0.00 64 1018.5
20260830065200 76 278 0.0 2.0 0.00 0.00 0.00 66 1018.5
20260830064157 74 275 0.0 3.0 0.00 0.00 0.00 71 1018.4
20260830063656 74 273 0.0 3.0 0.00 0.00 0.00 72 1018.4
20260830062153 73 280 0.0 1.0 0.00 0.00 0.00 75 1018.5
20260830061652 72 283 0.0 1.0 0.00 0.00 0.00 75 1018.6
20260830060650 71 278 0.0 1.0 0.00 0.00 0.00 78 1018.6
20260830055648 71 281 0.0 1.0 0.00 0.00 0.00 78 1018.5
20260830055149 71 276 0.0 1.0 0.00 0.00 0.00 78 1018.4
20260830054647 71 276 0.0 4.0 0.00 0.00 0.00 78 1018.5